| time (UTC) | temp F | wind direction | speed knots | gust knots | rain 1hr in | rain 24hr in | rain mn in | humidity % | barometer mb |
| 20260507113052 | 45 | 50 | 1.7 | 5.2 | 0.05 | 0.87 | 0.83 | 93 | 1012.6 |
| 20260507111550 | 45 | 38 | 0.9 | 4.3 | 0.05 | 0.85 | 0.82 | 93 | 1012.6 |
| 20260507110057 | 45 | 45 | 0.9 | 5.2 | 0.05 | 0.84 | 0.81 | 93 | 1012.4 |
| 20260507104551 | 45 | 45 | 2.6 | 7.8 | 0.06 | 0.83 | 0.80 | 93 | 1012.3 |
| 20260507103111 | 45 | 45 | 0.9 | 4.3 | 0.06 | 0.82 | 0.79 | 93 | 1012.2 |
| 20260507101542 | 45 | 38 | 0.9 | 5.2 | 0.07 | 0.80 | 0.77 | 93 | 1011.9 |
| 20260507100050 | 46 | 35 | 1.7 | 7.0 | 0.09 | 0.80 | 0.76 | 93 | 1011.8 |
| 20260507094538 | 46 | 36 | 0.0 | 3.5 | 0.08 | 0.77 | 0.74 | 93 | 1011.6 |
| 20260507093037 | 46 | 22 | 1.7 | 7.8 | 0.09 | 0.76 | 0.72 | 93 | 1011.4 |
| 20260507091538 | 46 | 17 | 0.9 | 4.3 | 0.09 | 0.73 | 0.70 | 93 | 1011.1 |
| 20260507090034 | 47 | 341 | 0.0 | 2.6 | 0.09 | 0.71 | 0.68 | 93 | 1010.9 |
| 20260507084540 | 47 | 320 | 0.0 | 2.6 | 0.09 | 0.69 | 0.66 | 93 | 1010.7 |
| 20260507083026 | 47 | 320 | 0.0 | 1.7 | 0.09 | 0.67 | 0.64 | 93 | 1010.6 |
| 20260507081525 | 47 | 320 | 0.0 | 2.6 | 0.10 | 0.65 | 0.61 | 93 | 1010.4 |
| 20260507080023 | 47 | 319 | 0.0 | 2.6 | 0.09 | 0.62 | 0.59 | 93 | 1010.1 |
| 20260507074521 | 47 | 319 | 0.0 | 1.7 | 0.09 | 0.60 | 0.56 | 93 | 1010.0 |
| 20260507073019 | 47 | 320 | 0.9 | 5.2 | 0.07 | 0.56 | 0.54 | 93 | 1009.8 |
| 20260507071521 | 47 | 317 | 0.0 | 5.2 | 0.06 | 0.54 | 0.51 | 93 | 1009.6 |
| 20260507070016 | 47 | 316 | 0.9 | 3.5 | 0.06 | 0.53 | 0.50 | 93 | 1009.5 |
| 20260507064514 | 47 | 323 | 0.9 | 3.5 | 0.08 | 0.51 | 0.48 | 93 | 1009.4 |
| 20260507063012 | 47 | 319 | 0.9 | 3.5 | 0.11 | 0.50 | 0.47 | 93 | 1009.2 |
| 20260507061512 | 47 | 319 | 0.0 | 5.2 | 0.13 | 0.49 | 0.46 | 93 | 1009.1 |
| 20260507060017 | 47 | 320 | 0.9 | 5.2 | 0.14 | 0.46 | 0.43 | 93 | 1008.9 |
| 20260507054506 | 47 | 311 | 0.9 | 6.1 | 0.15 | 0.43 | 0.39 | 93 | 1008.7 |
| 20260507053005 | 47 | 329 | 0.9 | 6.1 | 0.15 | 0.40 | 0.36 | 92 | 1008.5 |
| 20260507051502 | 47 | 333 | 0.9 | 7.0 | 0.13 | 0.36 | 0.32 | 92 | 1008.4 |
| 20260507050100 | 47 | 325 | 0.9 | 6.1 | 0.12 | 0.32 | 0.28 | 92 | 1008.2 |
| 20260507044559 | 47 | 313 | 0.9 | 7.8 | 0.11 | 0.28 | 0.24 | 92 | 1008.1 |
| 20260507043046 | 47 | 310 | 0.0 | 3.5 | 0.09 | 0.25 | 0.21 | 92 | 1008.0 |
| 20260507041557 | 47 | 326 | 0.0 | 7.0 | 0.09 | 0.23 | 0.19 | 92 | 1007.8 |
| 20260507040044 | 47 | 326 | 0.9 | 5.2 | 0.11 | 0.20 | 0.16 | 92 | 1007.6 |
| 20260507034539 | 47 | 325 | 0.9 | 10.4 | 0.10 | 0.17 | 0.13 | 92 | 1007.5 |
| 20260507033038 | 48 | 323 | 0.9 | 4.3 | 0.09 | 0.16 | 0.12 | 92 | 1007.4 |
| 20260507031539 | 49 | 327 | 0.0 | 4.3 | 0.09 | 0.13 | 0.09 | 92 | 1007.2 |
| 20260507030032 | 49 | 344 | 0.0 | 3.5 | 0.03 | 0.08 | 0.04 | 92 | 1007.2 |
| 20260507024535 | 49 | 334 | 0.0 | 6.1 | 0.02 | 0.07 | 0.03 | 92 | 1007.1 |
| 20260507023028 | 49 | 315 | 0.9 | 7.0 | 0.02 | 0.06 | 0.02 | 92 | 1007.1 |
| 20260507021533 | 50 | 317 | 0.9 | 5.2 | 0.00 | 0.05 | 0.01 | 92 | 1006.9 |
| 20260507020024 | 50 | 318 | 0.0 | 6.1 | 0.00 | 0.05 | 0.01 | 91 | 1006.8 |
| 20260507014521 | 51 | 321 | 0.9 | 5.2 | 0.00 | 0.05 | 0.01 | 91 | 1006.7 |
| 20260507013021 | 51 | 325 | 0.9 | 3.5 | 0.00 | 0.05 | 0.01 | 91 | 1006.6 |
| 20260507011521 | 52 | 327 | 0.0 | 0.9 | 0.00 | 0.05 | 0.01 | 91 | 1006.6 |
| 20260507010023 | 52 | 327 | 0.0 | 0.0 | 0.00 | 0.05 | 0.01 | 91 | 1006.6 |
| 20260507004516 | 52 | 327 | 0.0 | 0.0 | 0.00 | 0.06 | 0.01 | 91 | 1006.6 |
| 20260507003014 | 52 | 327 | 0.0 | 0.0 | 0.00 | 0.06 | 0.01 | 91 | 1006.6 |
| 20260507001515 | 52 | 327 | 0.0 | 0.0 | 0.00 | 0.06 | 0.01 | 91 | 1006.6 |
| 20260507000012 | 52 | 327 | 0.0 | 0.0 | 0.00 | 0.06 | 0.01 | 91 | 1006.5 |
| 20260506234511 | 52 | 327 | 0.0 | 0.0 | 0.00 | 0.07 | 0.01 | 91 | 1006.6 |
| 20260506233010 | 52 | 327 | 0.0 | 0.0 | 0.01 | 0.07 | 0.01 | 91 | 1006.5 |
| 20260506231510 | 52 | 327 | 0.0 | 0.0 | 0.01 | 0.07 | 0.01 | 90 | 1006.5 |
| 20260506230007 | 52 | 327 | 0.0 | 0.0 | 0.01 | 0.07 | 0.01 | 90 | 1006.1 |
| 20260506224506 | 52 | 327 | 0.0 | 0.0 | 0.00 | 0.11 | 0.00 | 90 | 1006.2 |
| 20260506223005 | 52 | 327 | 0.0 | 0.0 | 0.00 | 0.11 | 0.00 | 90 | 1006.3 |
| 20260506221505 | 52 | 327 | 0.0 | 0.0 | 0.01 | 0.11 | 0.00 | 90 | 1006.2 |
| 20260506220002 | 52 | 327 | 0.0 | 0.0 | 0.01 | 0.11 | 0.00 | 89 | 1006.0 |
| 20260506214602 | 52 | 327 | 0.0 | 0.0 | 0.01 | 0.20 | 0.11 | 89 | 1006.2 |
| 20260506213101 | 53 | 327 | 0.0 | 0.0 | 0.02 | 0.20 | 0.11 | 88 | 1006.1 |
| 20260506211559 | 53 | 327 | 0.0 | 0.0 | 0.02 | 0.20 | 0.11 | 87 | 1006.1 |
| 20260506210058 | 54 | 327 | 0.0 | 0.0 | 0.01 | 0.20 | 0.10 | 86 | 1006.0 |
| 20260506204558 | 54 | 327 | 0.0 | 0.0 | 0.01 | 0.47 | 0.10 | 85 | 1006.0 |
| 20260506203055 | 54 | 327 | 0.0 | 0.0 | 0.00 | 0.46 | 0.09 | 84 | 1005.9 |
| 20260506201555 | 54 | 327 | 0.0 | 0.0 | 0.00 | 0.46 | 0.09 | 84 | 1005.8 |
| 20260506200054 | 54 | 327 | 0.0 | 0.0 | 0.00 | 0.46 | 0.09 | 83 | 1005.7 |
| 20260506194552 | 54 | 327 | 0.9 | 3.5 | 0.00 | 0.76 | 0.09 | 82 | 1005.6 |
| 20260506193054 | 55 | 349 | 0.0 | 3.5 | 0.00 | 0.76 | 0.09 | 82 | 1005.3 |
| 20260506191550 | 55 | 313 | 0.0 | 1.7 | 0.00 | 0.76 | 0.09 | 82 | 1005.1 |
| 20260506190047 | 55 | 311 | 0.0 | 0.0 | 0.00 | 0.76 | 0.09 | 81 | 1004.8 |
| 20260506184546 | 55 | 311 | 0.0 | 0.0 | 0.00 | 0.77 | 0.09 | 80 | 1004.6 |
| 20260506183044 | 55 | 311 | 0.0 | 0.0 | 0.00 | 0.77 | 0.09 | 79 | 1004.3 |
| 20260506181557 | 55 | 311 | 0.0 | 0.0 | 0.00 | 0.77 | 0.09 | 79 | 1004.2 |
| 20260506180044 | 56 | 311 | 0.0 | 0.9 | 0.00 | 0.77 | 0.09 | 79 | 1004.3 |
| 20260506174542 | 56 | 311 | 0.0 | 1.7 | 0.00 | 0.77 | 0.09 | 78 | 1004.4 |
| 20260506173105 | 57 | 311 | 0.0 | 5.2 | 0.00 | 0.77 | 0.09 | 77 | 1004.3 |
| 20260506171543 | 58 | 348 | 0.0 | 0.0 | 0.00 | 0.77 | 0.09 | 77 | 1003.9 |
| 20260506170100 | 58 | 348 | 0.0 | 0.0 | 0.00 | 0.77 | 0.09 | 75 | 1003.9 |
| 20260506164541 | 58 | 348 | 0.0 | 3.5 | 0.00 | 0.77 | 0.09 | 74 | 1003.7 |
| 20260506163051 | 57 | 348 | 2.6 | 6.1 | 0.00 | 0.77 | 0.09 | 75 | 1003.8 |
| 20260506161541 | 57 | 352 | 1.7 | 7.8 | 0.00 | 0.77 | 0.09 | 78 | 1004.1 |
| 20260506160042 | 57 | 334 | 1.7 | 8.7 | 0.02 | 0.77 | 0.09 | 79 | 1003.9 |
| 20260506154547 | 58 | 359 | 0.0 | 3.5 | 0.02 | 0.77 | 0.09 | 79 | 1003.8 |
| 20260506153037 | 58 | 359 | 0.0 | 0.0 | 0.02 | 0.77 | 0.09 | 80 | 1003.7 |
| 20260506151537 | 59 | 359 | 1.7 | 7.0 | 0.02 | 0.77 | 0.09 | 78 | 1003.7 |
| 20260506150037 | 62 | 333 | 5.2 | 10.4 | 0.00 | 0.76 | 0.08 | 71 | 1003.7 |
| 20260506144542 | 63 | 193 | 1.7 | 7.0 | 0.00 | 0.76 | 0.08 | 64 | 1003.6 |
| 20260506143035 | 63 | 175 | 0.0 | 1.7 | 0.00 | 0.76 | 0.08 | 65 | 1003.7 |
| 20260506141534 | 63 | 175 | 0.0 | 5.2 | 0.00 | 0.76 | 0.08 | 64 | 1003.7 |
| 20260506140036 | 62 | 173 | 3.5 | 7.0 | 0.00 | 0.76 | 0.08 | 66 | 1003.8 |
| 20260506134532 | 62 | 186 | 2.6 | 7.0 | 0.00 | 0.76 | 0.08 | 69 | 1003.9 |
| 20260506133039 | 62 | 195 | 0.9 | 7.8 | 0.00 | 0.76 | 0.08 | 66 | 1003.9 |
| 20260506131533 | 62 | 188 | 1.7 | 7.0 | 0.00 | 0.76 | 0.08 | 65 | 1004.0 |
| 20260506130035 | 63 | 201 | 3.5 | 7.8 | 0.00 | 0.76 | 0.08 | 65 | 1003.9 |
| 20260506124530 | 63 | 206 | 2.6 | 8.7 | 0.00 | 0.76 | 0.08 | 65 | 1004.0 |
| 20260506123029 | 64 | 189 | 0.9 | 6.1 | 0.00 | 0.76 | 0.08 | 63 | 1004.0 |
| 20260506121529 | 64 | 192 | 2.6 | 7.0 | 0.00 | 0.76 | 0.08 | 66 | 1004.0 |
| 20260506120028 | 63 | 217 | 2.6 | 6.1 | 0.00 | 0.76 | 0.08 | 66 | 1004.2 |
| 20260506114529 | 64 | 230 | 6.1 | 10.4 | 0.00 | 0.76 | 0.08 | 62 | 1004.0 |